Location: Goettingen
(51.5300°N, 9.9433°E)
Time: 00:45:51
(UTC+02:00)

ISS - Pass Details

Date: 21 May 2017
Orbit: 402 x 408 km, 51.6° (Epoch: 30 May)

Event Time Altitude Azimuth Distance (km) Brightness Sun altitude
Rises 04:31:42 0° 283° (WNW) 2,331 -0.3 -6.6°
Reaches altitude 10° 04:33:49 10° 279° (W) 1,467 -1.3 -6.4°
Maximum altitude 04:37:02 56° 200° (SSW) 489 -3.7 -6.0°
Drops below altitude 10° 04:40:15 10° 121° (ESE) 1,458 -0.8 -5.6°
Sets 04:42:21 0° 117° (ESE) 2,315 0.3 -5.4°
